Weather History for White Plains, NY

Change the Weather History Date:

Thursday, March 28, 2013

  Actual Average Record
Temperature  
Mean Temperature 42 °F -  
Max Temperature 50 °F 49 °F 80 °F (1989)
Min Temperature 35 °F 34 °F 19 °F (1982)
Degree Days  
Heating Degree Days 22    
Moisture  
Dew Point 28 °F    
Average Humidity 57    
Maximum Humidity 73    
Minimum Humidity 44    
Precipitation  
Precipitation 0.00 in - - ()
Sea Level Pressure  
Sea Level Pressure 30.00 in    
Wind  
Wind Speed 13 mph (NW)    
Max Wind Speed 18 mph    
Max Gust Speed 24 mph    
Visibility 10 miles    
Events      
Averages and records for this station are not official NWS values.
T = Trace of Precipitation, MM = Missing Value Source: NWS Daily Summary

Daily Weather History Graph

Daily Weather History Graph

Search for Another Location

Airport:

Trip Planner

Search our weather history database for the weather conditions in past years. The results will help you decide how hot, cold, wet, or windy it might be!

Date:

Astronomy

Mar. 28, 2013 Rise Set
Actual Time 6:44 AM EDT 7:15 PM EDT
Civil Twilight 6:16 AM EDT 7:43 PM EDT
Nautical Twilight 5:44 AM EDT 8:16 PM EDT
Astronomical Twilight 5:10 AM EDT 8:49 PM EDT
Moon 9:05 PM EDT (3/28) 7:09 AM EDT (3/28)
Length of Visible Light 13h 26m
Length of Day
12h 31m
Full, 98% of the Moon is Illuminated
Mar 28
Full
Apr 3
Last Quarter
Apr 10
New
Apr 18
First Quarter
Apr 25
Full

Hourly Weather History & Observations

Time (EDT) Temp. Windchill Dew Point Humidity Pressure Visibility Wind Dir Wind Speed Gust Speed Precip Events Conditions
12:56 AM 37.9 °F 29.2 °F 27.0 °F 65% 29.95 in 10.0 mi WNW 15.0 mph - N/A   Clear
1:56 AM 37.0 °F 28.9 °F 27.0 °F 67% 29.95 in 10.0 mi WNW 12.7 mph - N/A   Clear
2:56 AM 37.0 °F 29.8 °F 27.0 °F 67% 29.94 in 10.0 mi NW 10.4 mph - N/A   Clear
3:56 AM 36.0 °F 28.0 °F 28.0 °F 73% 29.94 in 10.0 mi NW 11.5 mph - N/A   Clear
4:56 AM 36.0 °F 27.5 °F 27.0 °F 70% 29.94 in 10.0 mi NW 12.7 mph - N/A   Clear
5:56 AM 36.0 °F 28.5 °F 26.1 °F 67% 29.94 in 10.0 mi NW 10.4 mph - N/A   Clear
6:56 AM 35.1 °F 27.4 °F 26.1 °F 70% 29.96 in 10.0 mi NW 10.4 mph - N/A   Clear
7:56 AM 37.0 °F 30.4 °F 27.0 °F 67% 29.97 in 10.0 mi NW 9.2 mph - N/A   Partly Cloudy
8:56 AM 41.0 °F 33.9 °F 27.0 °F 57% 29.98 in 10.0 mi NW 12.7 mph 19.6 mph N/A   Partly Cloudy
9:56 AM 44.1 °F 36.2 °F 27.0 °F 51% 29.98 in 10.0 mi NNW 18.4 mph 24.2 mph N/A   Scattered Clouds
10:56 AM 45.0 °F 38.5 °F 27.0 °F 49% 29.99 in 10.0 mi North 13.8 mph 21.9 mph N/A   Mostly Cloudy
11:56 AM 46.0 °F 40.2 °F 28.9 °F 51% 30.00 in 10.0 mi NNW 12.7 mph - N/A   Mostly Cloudy
12:56 PM 46.0 °F 39.9 °F 28.9 °F 51% 30.00 in 10.0 mi North 13.8 mph - N/A   Mostly Cloudy
1:56 PM 48.0 °F - 28.9 °F 48% 29.99 in 10.0 mi NNW 13.8 mph 20.7 mph N/A   Mostly Cloudy
2:56 PM 46.0 °F 38.8 °F 32.0 °F 58% 30.00 in 9.0 mi NNW 18.4 mph 24.2 mph 0.00 in   Mostly Cloudy
3:56 PM 48.0 °F - 28.0 °F 46% 29.99 in 10.0 mi NNW 17.3 mph - N/A   Mostly Cloudy
4:56 PM 50.0 °F - 28.9 °F 44% 30.00 in 10.0 mi North 13.8 mph - N/A   Mostly Cloudy
5:56 PM 46.9 °F - 28.0 °F 48% 30.01 in 10.0 mi North 12.7 mph - N/A   Mostly Cloudy
6:56 PM 46.0 °F 40.2 °F 28.0 °F 50% 30.04 in 10.0 mi NW 12.7 mph - N/A   Overcast
7:56 PM 45.0 °F 40.1 °F 28.0 °F 52% 30.05 in 10.0 mi WNW 9.2 mph - N/A   Overcast
8:56 PM 44.1 °F 38.6 °F 28.0 °F 53% 30.06 in 10.0 mi NW 10.4 mph - N/A   Clear
9:56 PM 43.0 °F 36.8 °F 28.9 °F 58% 30.08 in 10.0 mi NW 11.5 mph - N/A   Overcast
10:56 PM 42.1 °F 36.1 °F 28.0 °F 58% 30.09 in 10.0 mi NW 10.4 mph - N/A   Mostly Cloudy
11:56 PM 42.1 °F 34.5 °F 28.0 °F 58% 30.09 in 10.0 mi NW 15.0 mph - N/A   Overcast